College Park, MD

3:50 PM EST on December 11, 2019 (GMT -0500)
College Park

Weather History for KCGS - October, 2019

Change the Weather History Date:

Monday, October 14, 2019

  Actual Average Record
Temperature  
Mean Temperature 60 °F -  
Max Temperature 74 °F 70 °F 87 °F (1954)
Min Temperature 45 °F 49 °F 30 °F (1988)
Degree Days  
Heating Degree Days 6    
Growing Degree Days 10 (Base 50)    
Moisture  
Dew Point 42 °F    
Average Humidity 59    
Maximum Humidity 94    
Minimum Humidity 21    
Precipitation  
Precipitation 0.00 in - - ()
Sea Level Pressure  
Sea Level Pressure 30.01 in    
Wind  
Wind Speed 1 mph (WSW)    
Max Wind Speed 10 mph    
Max Gust Speed -    
Visibility 10 miles    
Events      
Averages and records for this station are not official NWS values.
T = Trace of Precipitation, MM = Missing Value Source: NWS Daily Summary

Daily Weather History Graph

Daily Weather History Graph

Search for Another Location

Airport or City:

Astronomy

Oct. 14, 2019 Rise Set
Actual Time 7:15 AM EDT 6:30 PM EDT
Civil Twilight 6:49 AM EDT 6:57 PM EDT
Nautical Twilight 6:18 AM EDT 7:28 PM EDT
Astronomical Twilight 5:47 AM EDT 7:59 PM EDT
Moon 7:20 PM EDT (10/14) 7:45 AM EDT (10/14)
Length of Visible Light 12h 08m
Length of Day
11h 14m
Waxing Gibbous, 99% of the Moon is Illuminated
Oct 14
Waxing Gibbous
Oct 21
Last Quarter
Oct 27
New
Nov 4
First Quarter
Nov 12
Full

Hourly Weather History & Observations

Time (EDT) Temp. Dew Point Humidity Pressure Visibility Wind Dir Wind Speed Gust Speed Precip Events Conditions
12:03 AM 57.7 °F 48.2 °F 70% 30.01 in 10.0 mi Calm Calm - N/A   Overcast
12:23 AM 57.6 °F 48.2 °F 71% 30.01 in 10.0 mi Calm Calm - N/A   Overcast
12:43 AM 57.7 °F 48.2 °F 70% 30.00 in 10.0 mi Calm Calm - N/A   Overcast
1:03 AM 55.0 °F 47.5 °F 76% 30.00 in 10.0 mi Calm Calm - N/A   Scattered Clouds
1:23 AM 54.1 °F 47.3 °F 78% 29.99 in 10.0 mi Calm Calm - N/A   Clear
1:43 AM 52.7 °F 47.3 °F 82% 29.99 in 10.0 mi Calm Calm - N/A   Clear
2:03 AM 52.0 °F 46.8 °F 82% 29.99 in 10.0 mi Calm Calm - N/A   Clear
2:23 AM 51.3 °F 47.1 °F 86% 29.98 in 10.0 mi Calm Calm - N/A   Clear
2:43 AM 50.5 °F 47.5 °F 89% 29.98 in 10.0 mi Calm Calm - N/A   Clear
3:03 AM 50.0 °F 48.2 °F 94% 29.97 in 10.0 mi Calm Calm - N/A   Clear
3:23 AM 48.4 °F 46.6 °F 93% 29.97 in 10.0 mi Calm Calm - N/A   Clear
3:43 AM 49.1 °F 47.3 °F 93% 29.96 in 10.0 mi Calm Calm - N/A   Clear
4:03 AM 47.8 °F 46.0 °F 93% 29.96 in 10.0 mi Calm Calm - N/A   Clear
4:23 AM 48.2 °F 46.4 °F 93% 29.96 in 10.0 mi Calm Calm - N/A   Clear
4:43 AM 47.3 °F 45.5 °F 93% 29.96 in 10.0 mi Calm Calm - N/A   Clear
5:03 AM 47.5 °F 45.7 °F 93% 29.96 in 10.0 mi Calm Calm - N/A   Clear
5:23 AM 47.3 °F 45.5 °F 93% 29.97 in 7.0 mi Calm Calm - N/A   Clear
5:43 AM 46.6 °F 44.8 °F 93% 29.98 in 10.0 mi Calm Calm - N/A   Clear
6:03 AM 45.9 °F 44.1 °F 93% 29.99 in 3.0 mi Calm Calm - N/A   Clear
6:23 AM - - N/A% 30.00 in 10.0 mi Calm Calm - N/A   Clear
6:43 AM - - N/A% 30.01 in 10.0 mi Calm Calm - N/A   Clear
7:03 AM - - N/A% 30.02 in 10.0 mi Calm Calm - N/A   Clear
7:23 AM - - N/A% 30.02 in 10.0 mi Calm Calm - N/A   Clear
7:43 AM - - N/A% 30.02 in 10.0 mi Calm Calm - N/A   Clear
8:03 AM - - N/A% 30.03 in 10.0 mi Calm Calm - N/A   Clear
8:23 AM - - N/A% 30.04 in 10.0 mi Calm Calm - N/A   Clear
8:43 AM - - N/A% 30.04 in 10.0 mi Calm Calm - N/A   Clear
9:03 AM - - N/A% 30.04 in 10.0 mi Calm Calm - N/A   Clear
9:23 AM 55.0 °F 51.8 °F 89% 30.05 in 10.0 mi Calm Calm - N/A   Clear
9:43 AM 58.3 °F 47.1 °F 66% 30.05 in 10.0 mi Calm Calm - N/A   Clear
10:03 AM 61.0 °F 46.8 °F 59% 30.05 in 10.0 mi Calm Calm - N/A   Clear
10:23 AM 61.9 °F 47.1 °F 58% 30.05 in 10.0 mi Calm Calm - N/A   Clear
10:43 AM 63.7 °F 46.8 °F 54% 30.05 in 10.0 mi Calm Calm - N/A   Clear
11:03 AM 65.8 °F 44.6 °F 46% 30.05 in 10.0 mi Calm Calm - N/A   Clear
11:23 AM 67.6 °F 39.6 °F 36% 30.04 in 10.0 mi WSW 6.9 mph - N/A   Clear
11:43 AM 68.7 °F 37.0 °F 31% 30.04 in 10.0 mi NW 10.4 mph - N/A   Clear
12:03 PM 68.5 °F 36.1 °F 30% 30.04 in 10.0 mi NW 6.9 mph - N/A   Clear
12:23 PM 68.9 °F 33.4 °F 27% 30.04 in 10.0 mi WNW 4.6 mph - N/A   Clear
12:43 PM 70.3 °F 32.9 °F 25% 30.03 in 10.0 mi WSW 8.1 mph - N/A   Clear
1:03 PM 70.2 °F 32.5 °F 25% 30.02 in 10.0 mi West 5.8 mph - N/A   Clear
1:23 PM 70.9 °F 32.0 °F 24% 30.02 in 10.0 mi WSW 8.1 mph - N/A   Clear
1:43 PM 71.6 °F 32.7 °F 24% 30.00 in 10.0 mi West 5.8 mph - N/A   Clear
2:03 PM 72.3 °F 32.4 °F 23% 29.99 in 10.0 mi WSW 4.6 mph - N/A   Clear
2:23 PM 71.8 °F 32.5 °F 24% 29.98 in 10.0 mi SSW 5.8 mph - N/A   Clear
2:43 PM 73.2 °F 31.8 °F 22% 29.97 in 10.0 mi WSW 3.5 mph - N/A   Clear
3:03 PM 73.8 °F 32.0 °F 22% 29.96 in 10.0 mi WSW 5.8 mph - N/A   Clear
3:23 PM 74.7 °F 32.4 °F 21% 29.96 in 10.0 mi Calm Calm - N/A   Clear
5:23 PM 73.8 °F 32.0 °F 22% 29.96 in 10.0 mi SSW 3.5 mph - N/A   Clear
5:43 PM 73.4 °F 30.7 °F 21% 29.96 in 10.0 mi WSW 4.6 mph - N/A   Clear
6:03 PM 72.1 °F 34.2 °F 25% 29.97 in 10.0 mi Calm Calm - N/A   Clear
6:23 PM 71.1 °F 35.6 °F 27% 29.97 in 10.0 mi South 3.5 mph - N/A   Clear
6:43 PM 69.8 °F 41.4 °F 36% 29.98 in 10.0 mi Calm Calm - N/A   Clear
7:03 PM 68.9 °F 42.6 °F 39% 29.99 in 10.0 mi Calm Calm - N/A   Clear
7:23 PM 64.4 °F 42.4 °F 45% 29.99 in 10.0 mi Calm Calm - N/A   Clear
7:43 PM 61.2 °F 43.5 °F 52% 30.00 in 10.0 mi Calm Calm - N/A   Clear
8:03 PM 58.8 °F 44.1 °F 58% 30.01 in 10.0 mi Calm Calm - N/A   Clear
8:23 PM 57.7 °F 44.2 °F 61% 30.02 in 10.0 mi Calm Calm - N/A   Clear
8:43 PM 56.5 °F 45.0 °F 65% 30.02 in 10.0 mi Calm Calm - N/A   Clear
9:03 PM 55.8 °F 44.6 °F 66% 30.02 in 10.0 mi Calm Calm - N/A   Clear
9:23 PM 54.3 °F 45.7 °F 73% 30.02 in 10.0 mi Calm Calm - N/A   Clear
9:43 PM 54.5 °F 45.3 °F 71% 30.04 in 10.0 mi NNW 8.1 mph - N/A   Clear
10:03 PM 54.7 °F 45.5 °F 71% 30.05 in 10.0 mi Calm Calm - N/A   Clear
10:23 PM 54.1 °F 44.8 °F 71% 30.05 in 10.0 mi Calm Calm - N/A   Clear
10:43 PM 53.4 °F 45.5 °F 75% 30.05 in 10.0 mi Calm Calm - N/A   Clear
11:03 PM 52.7 °F 45.0 °F 75% 30.06 in 10.0 mi Calm Calm - N/A   Clear
11:23 PM 51.3 °F 44.4 °F 77% 30.06 in 10.0 mi Calm Calm - N/A   Clear
11:43 PM 51.4 °F 44.4 °F 77% 30.07 in 10.0 mi Calm Calm - N/A   Clear